TimeIST,TemperatureF,Dew PointF,Humidity,Sea Level PressureIn,VisibilityMPH,Wind Direction,Wind SpeedMPH,Gust SpeedMPH,PrecipitationIn,Events,Conditions,WindDirDegrees,DateUTC
12:10 AM,78.8,77.0,94,29.80,1.9,SSW,5.8,-,N/A,,Haze,200,2012-11-02 18:40:00
12:40 AM,78.8,77.0,94,29.80,1.9,SSW,3.5,-,N/A,,Haze,200,2012-11-02 19:10:00
1:10 AM,78.8,75.2,89,29.80,1.9,SW,3.5,-,N/A,,Haze,230,2012-11-02 19:40:00
1:40 AM,77.0,75.2,94,29.80,1.9,SSW,2.3,-,N/A,,Haze,200,2012-11-02 20:10:00
2:10 AM,77.0,71.6,83,29.80,1.9,SSW,2.3,-,N/A,,Haze,200,2012-11-02 20:40:00
2:30 AM,77,73,83,29.78,1,SSW,2.3,,,,Haze,200,2012-11-02 21:00:00
2:40 AM,77.0,75.2,94,29.77,1.9,WSW,2.3,-,N/A,,Haze,240,2012-11-02 21:10:00
3:10 AM,82.4,73.4,74,29.77,1.9,West,2.3,-,N/A,,Haze,270,2012-11-02 21:40:00
3:40 AM,77.0,73.4,89,29.77,1.9,SSW,2.3,-,N/A,,Haze,210,2012-11-02 22:10:00
4:40 AM,75.2,73.4,94,29.80,1.6,WNW,2.3,-,N/A,,Scattered Clouds,300,2012-11-02 23:10:00
5:10 AM,75.2,73.4,94,29.80,1.6,West,3.5,-,N/A,,Scattered Clouds,260,2012-11-02 23:40:00
5:30 AM,77,75,92,29.78,1,WNW,2.3,,,,Haze,290,2012-11-03 00:00:00
5:40 AM,77.0,75.2,94,29.77,1.2,WSW,2.3,-,N/A,,Scattered Clouds,250,2012-11-03 00:10:00
6:10 AM,77.0,75.2,94,29.80,0.9,Calm,Calm,-,N/A,,Mostly Cloudy,0,2012-11-03 00:40:00
6:40 AM,77.0,75.2,94,29.80,0.9,Calm,Calm,-,N/A,,Mostly Cloudy,0,2012-11-03 01:10:00
7:10 AM,78.8,75.2,89,29.80,0.9,Calm,Calm,-,N/A,,Partly Cloudy,0,2012-11-03 01:40:00
7:40 AM,80.6,75.2,84,29.83,1.2,WNW,2.3,-,N/A,,Partly Cloudy,300,2012-11-03 02:10:00
8:10 AM,80.6,75.2,84,29.83,1.6,WNW,5.8,-,N/A,,Haze,300,2012-11-03 02:40:00
8:30 AM,81,75,78,29.83,1,WNW,9.2,,,,Haze,290,2012-11-03 03:00:00
8:40 AM,82.4,75.2,79,29.83,1.6,WNW,9.2,-,N/A,,Haze,290,2012-11-03 03:10:00
9:40 AM,86.0,73.4,66,29.86,2.2,WNW,9.2,-,N/A,,Haze,300,2012-11-03 04:10:00
10:10 AM,86.0,73.4,66,29.86,2.5,WNW,9.2,-,N/A,,Haze,290,2012-11-03 04:40:00
11:10 AM,89.6,73.4,59,29.83,3.7,WNW,10.4,-,N/A,,Unknown,290,2012-11-03 05:40:00
11:30 AM,89,69,41,29.82,2,WNW,9.2,,,,Haze,290,2012-11-03 06:00:00
11:40 AM,89.6,71.6,55,29.83,3.7,WNW,10.4,-,N/A,,Unknown,300,2012-11-03 06:10:00
12:10 PM,89.6,69.8,52,29.83,4.3,West,11.5,-,N/A,,Unknown,280,2012-11-03 06:40:00
12:40 PM,91.4,69.8,49,29.80,5.0,WNW,9.2,-,N/A,,Unknown,290,2012-11-03 07:10:00
1:40 PM,93.2,71.6,49,29.77,6.2,West,6.9,-,N/A,,Partly Cloudy,260,2012-11-03 08:10:00
2:10 PM,93.2,71.6,49,29.77,6.2,West,6.9,-,N/A,,Partly Cloudy,270,2012-11-03 08:40:00
2:30 PM,91,71,43,29.75,6,West,4.6,,,,Scattered Clouds,270,2012-11-03 09:00:00
2:40 PM,91.4,71.6,52,29.77,6.2,West,4.6,-,N/A,,Partly Cloudy,270,2012-11-03 09:10:00
3:10 PM,91.4,71.6,52,29.74,6.2,WSW,4.6,-,N/A,,Partly Cloudy,250,2012-11-03 09:40:00
3:40 PM,89.6,71.6,55,29.74,6.2,West,4.6,-,N/A,,Partly Cloudy,270,2012-11-03 10:10:00
4:10 PM,89.6,71.6,55,29.74,6.2,WSW,4.6,-,N/A,,Partly Cloudy,240,2012-11-03 10:40:00
4:40 PM,87.8,71.6,58,29.74,6.2,West,4.6,-,N/A,,Partly Cloudy,270,2012-11-03 11:10:00
5:10 PM,87.8,73.4,62,29.74,6.2,WSW,4.6,-,N/A,,Partly Cloudy,250,2012-11-03 11:40:00
5:30 PM,88,73,53,29.75,2,Calm,Calm,,,,Haze,,2012-11-03 12:00:00
5:40 PM,87.8,73.4,62,29.77,5.0,Calm,Calm,-,N/A,,Partly Cloudy,0,2012-11-03 12:10:00
6:10 PM,86.0,73.4,66,29.77,3.7,Variable,2.3,-,N/A,,Partly Cloudy,0,2012-11-03 12:40:00
6:40 PM,86.0,73.4,66,29.77,3.7,Variable,2.3,-,N/A,,Partly Cloudy,0,2012-11-03 13:10:00
7:10 PM,84.2,75.2,74,29.80,3.7,Variable,2.3,-,N/A,,Partly Cloudy,0,2012-11-03 13:40:00
7:40 PM,84.2,75.2,74,29.80,3.7,South,6.9,-,N/A,,Partly Cloudy,180,2012-11-03 14:10:00
8:10 PM,82.4,75.2,79,29.80,3.1,SSE,3.5,-,N/A,,Haze,160,2012-11-03 14:40:00
8:30 PM,82,75,73,29.81,1,South,5.8,,,,Haze,180,2012-11-03 15:00:00
8:40 PM,82.4,75.2,79,29.83,3.1,South,4.6,-,N/A,,Haze,170,2012-11-03 15:10:00
9:10 PM,82.4,75.2,79,29.83,3.1,South,5.8,-,N/A,,Haze,180,2012-11-03 15:40:00
9:40 PM,80.6,75.2,84,29.83,3.1,South,4.6,-,N/A,,Haze,190,2012-11-03 16:10:00
10:10 PM,80.6,75.2,84,29.86,3.1,WNW,4.6,-,N/A,,Haze,290,2012-11-03 16:40:00
10:40 PM,80.6,75.2,84,29.86,3.1,SSW,3.5,-,N/A,,Haze,210,2012-11-03 17:10:00
11:10 PM,80.6,75.2,84,29.86,3.1,SSW,2.3,-,N/A,,Haze,210,2012-11-03 17:40:00
11:30 PM,80,75,81,29.85,1,Calm,Calm,,,,Haze,,2012-11-03 18:00:00
11:40 PM,80.6,75.2,84,29.86,3.1,Calm,Calm,-,N/A,,Haze,0,2012-11-03 18:10:00